| time (UTC) | temp C | wind direction | speed KPH | gust KPH | rain 1hr cm | rain 24hr cm | rain mn cm | humidity % | barometer mb |
| 20260906173527 | 27 | 217 | 4.8 | 8.0 | 0.00 | 0.00 | 0.00 | 86 | 1022.5 |
| 20260906172530 | 27 | 179 | 4.8 | 8.0 | 0.00 | 0.00 | 0.00 | 86 | 1022.5 |
| 20260906171527 | 27 | 178 | 3.2 | 6.4 | 0.00 | 0.00 | 0.00 | 88 | 1022.4 |
| 20260906170518 | 27 | 184 | 3.2 | 9.7 | 0.00 | 0.00 | 0.00 | 87 | 1022.7 |
| 20260906165521 | 27 | 223 | 4.8 | 8.0 | 0.00 | 0.00 | 0.00 | 86 | 1022.7 |
| 20260906164518 | 27 | 192 | 3.2 | 8.0 | 0.00 | 0.00 | 0.00 | 86 | 1022.5 |
| 20260906163527 | 27 | 193 | 6.4 | 9.7 | 0.00 | 0.00 | 0.00 | 85 | 1022.4 |
| 20260906162529 | 28 | 55 | 3.2 | 6.4 | 0.00 | 0.00 | 0.00 | 86 | 1022.4 |
| 20260906161532 | 27 | 208 | 4.8 | 12.9 | 0.00 | 0.00 | 0.00 | 89 | 1022.6 |
| 20260906160517 | 27 | 218 | 3.2 | 8.0 | 0.00 | 0.00 | 0.00 | 91 | 1022.7 |
| 20260906155520 | 26 | 168 | 3.2 | 6.4 | 0.00 | 0.00 | 0.00 | 92 | 1022.5 |
| 20260906154522 | 26 | 216 | 3.2 | 4.8 | 0.00 | 0.00 | 0.00 | 95 | 1022.6 |
| 20260906153526 | 26 | 55 | 3.2 | 6.4 | 0.00 | 0.00 | 0.00 | 95 | 1022.6 |
| 20260906152528 | 25 | 143 | 1.6 | 4.8 | 0.00 | 0.00 | 0.00 | 99 | 1022.9 |
| 20260906151531 | 25 | 192 | 1.6 | 4.8 | 0.00 | 0.00 | 0.00 | 99 | 1022.7 |
| 20260906150516 | 24 | 106 | 1.6 | 4.8 | 0.00 | 0.00 | 0.00 | 99 | 1022.7 |
| 20260906145519 | 23 | 184 | 1.6 | 3.2 | 0.00 | 0.00 | 0.00 | 99 | 1022.5 |
| 20260906144522 | 23 | 219 | 4.8 | 9.7 | 0.00 | 0.00 | 0.00 | 99 | 1022.4 |
| 20260906143525 | 22 | 179 | 4.8 | 9.7 | 0.00 | 0.00 | 0.00 | 99 | 1022.4 |
| 20260906142528 | 22 | 185 | 1.6 | 4.8 | 0.00 | 0.00 | 0.00 | 99 | 1022.4 |
| 20260906141531 | 22 | 194 | 1.6 | 4.8 | 0.00 | 0.00 | 0.00 | 99 | 1022.4 |
| 20260906140516 | 21 | 237 | 1.6 | 4.8 | 0.00 | 0.00 | 0.00 | 99 | 1022.5 |
| 20260906135519 | 21 | 200 | 3.2 | 8.0 | 0.00 | 0.00 | 0.00 | 99 | 1022.5 |
| 20260906134521 | 21 | 160 | 1.6 | 4.8 | 0.00 | 0.00 | 0.00 | 99 | 1022.3 |
| 20260906133519 | 21 | 0.0 | 0.0 | 0.00 | 0.00 | 0.00 | 99 | 1022.4 | |
| 20260906132516 | 20 | 135 | 0.0 | 3.2 | 0.00 | 0.00 | 0.00 | 99 | 1022.5 |
| 20260906131530 | 20 | 248 | 0.0 | 3.2 | 0.00 | 0.00 | 0.00 | 99 | 1022.5 |
| 20260906130515 | 20 | 104 | 1.6 | 4.8 | 0.00 | 0.00 | 0.00 | 99 | 1022.3 |
| 20260906125518 | 20 | 79 | 1.6 | 3.2 | 0.00 | 0.00 | 0.00 | 99 | 1022.1 |
| 20260906124521 | 20 | 248 | 0.0 | 1.6 | 0.00 | 0.00 | 0.00 | 99 | 1022.0 |
| 20260906123524 | 20 | 164 | 1.6 | 3.2 | 0.00 | 0.00 | 0.00 | 99 | 1022.0 |
| 20260906122527 | 20 | 174 | 1.6 | 4.8 | 0.00 | 0.00 | 0.00 | 99 | 1022.1 |
| 20260906121530 | 20 | 60 | 0.0 | 3.2 | 0.00 | 0.00 | 0.00 | 99 | 1022.1 |
| 20260906120533 | 19 | 204 | 1.6 | 3.2 | 0.00 | 0.00 | 0.00 | 99 | 1021.9 |
| 20260906115517 | 19 | 104 | 1.6 | 4.8 | 0.00 | 0.00 | 0.00 | 99 | 1021.7 |
| 20260906114520 | 19 | 34 | 0.0 | 1.6 | 0.00 | 0.00 | 0.00 | 99 | 1021.7 |
| 20260906113523 | 19 | 68 | 0.0 | 1.6 | 0.00 | 0.00 | 0.00 | 99 | 1021.7 |
| 20260906112526 | 19 | 0 | 0.0 | 3.2 | 0.00 | 0.00 | 0.00 | 99 | 1021.5 |
| 20260906111529 | 19 | 125 | 1.6 | 3.2 | 0.00 | 0.00 | 0.00 | 99 | 1021.5 |
| 20260906110532 | 19 | 0.0 | 0.0 | 0.00 | 0.00 | 0.00 | 99 | 1021.2 | |
| 20260906105517 | 19 | 97 | 1.6 | 3.2 | 0.00 | 0.00 | 0.00 | 99 | 1021.0 |
| 20260906104520 | 19 | 0.0 | 1.6 | 0.00 | 0.00 | 0.00 | 99 | 1021.0 | |
| 20260906103523 | 19 | 158 | 0.0 | 1.6 | 0.00 | 0.00 | 0.00 | 99 | 1021.0 |
| 20260906102519 | 19 | 0.0 | 0.0 | 0.00 | 0.00 | 0.00 | 99 | 1021.0 | |
| 20260906101516 | 19 | 180 | 0.0 | 1.6 | 0.00 | 0.00 | 0.00 | 99 | 1020.6 |
| 20260906100531 | 18 | 0.0 | 0.0 | 0.00 | 0.00 | 0.00 | 99 | 1020.7 | |
| 20260906095516 | 18 | 0.0 | 3.2 | 0.00 | 0.00 | 0.00 | 99 | 1020.6 | |
| 20260906094519 | 18 | 0.0 | 0.0 | 0.00 | 0.00 | 0.00 | 99 | 1020.5 | |
| 20260906093522 | 18 | 0.0 | 0.0 | 0.00 | 0.00 | 0.00 | 99 | 1020.4 | |
| 20260906092525 | 18 | 90 | 0.0 | 1.6 | 0.00 | 0.00 | 0.00 | 99 | 1020.3 |
| 20260906091528 | 19 | 0.0 | 1.6 | 0.00 | 0.00 | 0.00 | 99 | 1020.3 | |
| 20260906090530 | 19 | 113 | 0.0 | 1.6 | 0.00 | 0.00 | 0.00 | 99 | 1020.3 |
| 20260906085515 | 19 | 0.0 | 0.0 | 0.00 | 0.00 | 0.00 | 99 | 1020.3 | |
| 20260906084518 | 19 | 0.0 | 0.0 | 0.00 | 0.00 | 0.00 | 99 | 1020.4 | |
| 20260906083521 | 20 | 0.0 | 0.0 | 0.00 | 0.00 | 0.00 | 99 | 1020.5 | |
| 20260906082523 | 20 | 23 | 0.0 | 1.6 | 0.00 | 0.00 | 0.00 | 99 | 1020.6 |
| 20260906081526 | 20 | 0.0 | 1.6 | 0.00 | 0.00 | 0.00 | 99 | 1020.5 | |
| 20260906080529 | 20 | 68 | 0.0 | 3.2 | 0.00 | 0.00 | 0.00 | 99 | 1020.5 |
| 20260906075532 | 20 | 0.0 | 1.6 | 0.00 | 0.00 | 0.00 | 99 | 1020.5 | |
| 20260906074518 | 20 | 0.0 | 0.0 | 0.00 | 0.00 | 0.00 | 99 | 1020.6 | |
| 20260906073520 | 20 | 0.0 | 0.0 | 0.00 | 0.00 | 0.00 | 99 | 1020.7 | |
| 20260906072523 | 20 | 0.0 | 1.6 | 0.00 | 0.00 | 0.00 | 99 | 1020.7 | |
| 20260906071520 | 20 | 0.0 | 1.6 | 0.00 | 0.00 | 0.00 | 99 | 1020.5 | |
| 20260906070517 | 20 | 0.0 | 0.0 | 0.00 | 0.00 | 0.00 | 99 | 1020.7 | |
| 20260906065533 | 20 | 0.0 | 0.0 | 0.00 | 0.00 | 0.00 | 99 | 1020.6 | |
| 20260906064517 | 20 | 0.0 | 0.0 | 0.00 | 0.00 | 0.00 | 99 | 1020.6 | |
| 20260906063520 | 20 | 0.0 | 0.0 | 0.00 | 0.00 | 0.00 | 99 | 1020.7 | |
| 20260906062523 | 20 | 0.0 | 3.2 | 0.00 | 0.00 | 0.00 | 99 | 1020.8 | |
| 20260906061526 | 20 | 0.0 | 0.0 | 0.00 | 0.00 | 0.00 | 99 | 1021.0 | |
| 20260906060529 | 20 | 0.0 | 0.0 | 0.00 | 0.00 | 0.00 | 99 | 1021.0 | |
| 20260906055532 | 21 | 90 | 0.0 | 4.8 | 0.00 | 0.00 | 0.00 | 99 | 1021.0 |
| 20260906054517 | 21 | 170 | 1.6 | 4.8 | 0.00 | 0.00 | 0.00 | 99 | 1021.0 |
| 20260906053519 | 21 | 0.0 | 0.0 | 0.00 | 0.00 | 0.00 | 99 | 1021.0 | |
| 20260906052522 | 21 | 129 | 1.6 | 3.2 | 0.00 | 0.00 | 0.00 | 99 | 1021.0 |
| 20260906051526 | 21 | 179 | 1.6 | 1.6 | 0.00 | 0.00 | 0.00 | 99 | 1021.0 |
| 20260906050528 | 21 | 196 | 1.6 | 4.8 | 0.00 | 0.00 | 0.00 | 99 | 1020.7 |
| 20260906045531 | 21 | 203 | 0.0 | 3.2 | 0.00 | 0.00 | 0.00 | 99 | 1020.8 |
| 20260906044516 | 21 | 0.0 | 0.0 | 0.00 | 0.00 | 0.00 | 99 | 1020.7 | |
| 20260906043518 | 21 | 0.0 | 0.0 | 0.00 | 0.00 | 0.00 | 99 | 1020.7 | |
| 20260906042521 | 21 | 0.0 | 0.0 | 0.00 | 0.00 | 0.00 | 99 | 1020.7 | |
| 20260906041524 | 21 | 0.0 | 0.0 | 0.00 | 0.00 | 0.00 | 99 | 1021.0 | |
| 20260906040521 | 21 | 0.0 | 0.0 | 0.00 | 0.00 | 0.00 | 99 | 1020.8 | |
| 20260906035517 | 21 | 0.0 | 0.0 | 0.00 | 0.00 | 0.00 | 99 | 1020.7 | |
| 20260906034532 | 21 | 0.0 | 0.0 | 0.00 | 0.00 | 0.00 | 99 | 1020.8 | |
| 20260906033516 | 21 | 0.0 | 0.0 | 0.00 | 0.00 | 0.00 | 99 | 1020.8 | |
| 20260906032519 | 21 | 0.0 | 0.0 | 0.00 | 0.00 | 0.00 | 99 | 1020.6 | |
| 20260906031522 | 21 | 0.0 | 0.0 | 0.00 | 0.00 | 0.00 | 99 | 1020.6 | |
| 20260906030525 | 21 | 0.0 | 0.0 | 0.00 | 0.00 | 0.00 | 99 | 1020.6 | |
| 20260906025528 | 21 | 0.0 | 0.0 | 0.00 | 0.00 | 0.00 | 99 | 1020.1 | |
| 20260906024531 | 21 | 0.0 | 0.0 | 0.00 | 0.00 | 0.00 | 99 | 1020.1 | |
| 20260906023516 | 21 | 0.0 | 0.0 | 0.00 | 0.00 | 0.00 | 99 | 1020.1 | |
| 20260906022519 | 21 | 0.0 | 0.0 | 0.00 | 0.00 | 0.00 | 99 | 1020.0 | |
| 20260906021522 | 22 | 0.0 | 0.0 | 0.00 | 0.00 | 0.00 | 99 | 1019.8 | |
| 20260906020524 | 22 | 0.0 | 0.0 | 0.00 | 0.00 | 0.00 | 99 | 1019.6 | |
| 20260906015527 | 22 | 0.0 | 0.0 | 0.00 | 0.00 | 0.00 | 99 | 1019.4 | |
| 20260906014530 | 22 | 0.0 | 0.0 | 0.00 | 0.00 | 0.00 | 99 | 1019.3 | |
| 20260906013533 | 22 | 0.0 | 0.0 | 0.00 | 0.00 | 0.00 | 99 | 1019.1 | |
| 20260906012517 | 22 | 0.0 | 0.0 | 0.00 | 0.00 | 0.00 | 99 | 1019.0 | |
| 20260906011520 | 22 | 0.0 | 0.0 | 0.00 | 0.00 | 0.00 | 99 | 1019.0 | |
| 20260906010523 | 23 | 0.0 | 0.0 | 0.00 | 0.00 | 0.00 | 99 | 1018.9 | |
| 20260906005519 | 23 | 0.0 | 0.0 | 0.00 | 0.00 | 0.00 | 99 | 1018.6 | |
| 20260906004516 | 23 | 0.0 | 0.0 | 0.00 | 0.00 | 0.00 | 99 | 1018.8 | |
| 20260906003531 | 23 | 0.0 | 0.0 | 0.00 | 0.00 | 0.00 | 99 | 1018.7 | |
| 20260906002516 | 23 | 108 | 0.0 | 3.2 | 0.00 | 0.00 | 0.00 | 99 | 1018.6 |
| 20260906001519 | 24 | 0.0 | 0.0 | 0.00 | 0.00 | 0.00 | 99 | 1018.6 | |
| 20260906000522 | 25 | 0.0 | 0.0 | 0.00 | 0.00 | 0.00 | 99 | 1018.6 | |
| 20260905235525 | 25 | 0.0 | 3.2 | 0.00 | 0.00 | 0.00 | 99 | 1018.5 | |
| 20260905234528 | 25 | 127 | 1.6 | 3.2 | 0.00 | 0.00 | 0.00 | 99 | 1018.5 |
| 20260905233531 | 25 | 0.0 | 0.0 | 0.00 | 0.00 | 0.00 | 99 | 1018.5 | |
| 20260905232515 | 26 | 0.0 | 0.0 | 0.00 | 0.00 | 0.00 | 99 | 1018.4 | |
| 20260905231519 | 26 | 0.0 | 0.0 | 0.00 | 0.00 | 0.00 | 99 | 1018.4 | |
| 20260905230522 | 26 | 223 | 1.6 | 3.2 | 0.00 | 0.00 | 0.00 | 99 | 1018.5 |
| 20260905225524 | 26 | 158 | 0.0 | 3.2 | 0.00 | 0.00 | 0.00 | 99 | 1018.1 |
| 20260905224527 | 26 | 163 | 1.6 | 4.8 | 0.00 | 0.00 | 0.00 | 99 | 1018.0 |
| 20260905223530 | 26 | 258 | 1.6 | 4.8 | 0.00 | 0.00 | 0.00 | 99 | 1017.9 |
| 20260905222533 | 26 | 352 | 3.2 | 8.0 | 0.00 | 0.00 | 0.00 | 99 | 1017.7 |
| 20260905221517 | 26 | 299 | 3.2 | 6.4 | 0.00 | 0.00 | 0.00 | 98 | 1017.4 |
| 20260905220520 | 26 | 239 | 3.2 | 4.8 | 0.00 | 0.00 | 0.00 | 98 | 1017.9 |
| 20260905215523 | 26 | 118 | 3.2 | 6.4 | 0.00 | 0.00 | 0.00 | 97 | 1018.1 |
| 20260905214520 | 27 | 181 | 1.6 | 4.8 | 0.00 | 0.00 | 0.00 | 96 | 1018.1 |
| 20260905213517 | 27 | 222 | 3.2 | 6.4 | 0.00 | 0.00 | 0.00 | 95 | 1018.3 |
| 20260905212531 | 27 | 167 | 4.8 | 6.4 | 0.00 | 0.00 | 0.00 | 95 | 1018.6 |
| 20260905211516 | 27 | 155 | 1.6 | 3.2 | 0.00 | 0.00 | 0.00 | 95 | 1019.0 |
| 20260905210519 | 27 | 180 | 3.2 | 6.4 | 0.00 | 0.00 | 0.00 | 93 | 1018.6 |
| 20260905205522 | 28 | 203 | 3.2 | 6.4 | 0.00 | 0.00 | 0.00 | 93 | 1019.0 |
| 20260905204524 | 28 | 189 | 1.6 | 6.4 | 0.00 | 0.00 | 0.00 | 93 | 1019.0 |
| 20260905203528 | 28 | 222 | 1.6 | 6.4 | 0.00 | 0.00 | 0.00 | 90 | 1019.0 |
| 20260905202529 | 28 | 138 | 1.6 | 4.8 | 0.00 | 0.00 | 0.00 | 91 | 1019.0 |
| 20260905201533 | 29 | 312 | 1.6 | 3.2 | 0.00 | 0.00 | 0.00 | 90 | 1019.3 |
| 20260905200517 | 29 | 201 | 3.2 | 6.4 | 0.00 | 0.00 | 0.00 | 90 | 1019.5 |
| 20260905195520 | 28 | 186 | 3.2 | 8.0 | 0.00 | 0.00 | 0.00 | 92 | 1019.6 |
| 20260905194523 | 28 | 181 | 1.6 | 4.8 | 0.00 | 0.00 | 0.00 | 94 | 1019.6 |
| 20260905193526 | 28 | 170 | 1.6 | 4.8 | 0.00 | 0.00 | 0.00 | 94 | 1019.6 |
| 20260905192529 | 28 | 87 | 1.6 | 4.8 | 0.00 | 0.00 | 0.00 | 93 | 1019.5 |
| 20260905191531 | 28 | 196 | 1.6 | 4.8 | 0.00 | 0.00 | 0.00 | 94 | 1019.6 |
| 20260905190516 | 28 | 195 | 3.2 | 6.4 | 0.00 | 0.00 | 0.00 | 94 | 1019.9 |
| 20260905185519 | 28 | 281 | 1.6 | 6.4 | 0.00 | 0.00 | 0.00 | 95 | 1020.1 |
| 20260905184522 | 27 | 300 | 1.6 | 4.8 | 0.00 | 0.00 | 0.00 | 98 | 1020.0 |
| 20260905183519 | 27 | 168 | 3.2 | 4.8 | 0.00 | 0.00 | 0.00 | 98 | 1020.1 |
| 20260905182515 | 27 | 0.0 | 0.0 | 0.00 | 0.00 | 0.00 | 99 | 1020.2 | |
| 20260905181530 | 27 | 51 | 1.6 | 3.2 | 0.00 | 0.00 | 0.00 | 99 | 1020.5 |
| 20260905180515 | 26 | 0.0 | 0.0 | 0.00 | 0.00 | 0.00 | 99 | 1020.5 | |
| 20260905175518 | 26 | 270 | 0.0 | 1.6 | 0.00 | 0.00 | 0.00 | 99 | 1020.5 |
| 20260905174521 | 25 | 74 | 1.6 | 3.2 | 0.00 | 0.00 | 0.00 | 99 | 1020.6 |